Time,TemperatureF,DewpointF,PressureIn,WindDirection,WindDirectionDegrees,WindSpeedMPH,WindSpeedGustMPH,Humidity,HourlyPrecipIn,Conditions,Clouds,dailyrainin,SoftwareType,DateUTC
2013-05-10 00:01:00,69.3,67.0,29.92,SSE,168,0.0,-999.0,91,-99.99,,,0.00,weatherlink.com 1.10,2013-05-10 05:01:00,
2013-05-10 00:16:00,69.6,67.0,29.93,SSE,168,0.0,-999.0,91,-99.99,,,0.06,weatherlink.com 1.10,2013-05-10 05:16:00,
2013-05-10 00:31:00,69.8,67.0,29.93,SSE,168,0.0,-999.0,92,-99.99,,,0.21,weatherlink.com 1.10,2013-05-10 05:31:00,
2013-05-10 00:46:00,69.9,68.0,29.94,North,0,2.0,-999.0,92,-99.99,,,0.35,weatherlink.com 1.10,2013-05-10 05:46:00,
2013-05-10 01:01:00,69.1,67.0,29.94,NNW,330,2.0,-999.0,92,-99.99,,,1.19,weatherlink.com 1.10,2013-05-10 06:01:00,
2013-05-10 01:16:00,68.4,66.0,29.95,North,350,0.0,-999.0,93,-99.99,,,1.45,weatherlink.com 1.10,2013-05-10 06:16:00,
2013-05-10 01:31:00,68.1,66.0,29.95,NNW,330,1.0,-999.0,93,-99.99,,,1.61,weatherlink.com 1.10,2013-05-10 06:31:00,
2013-05-10 01:46:00,67.8,66.0,29.93,North,359,1.0,-999.0,93,-99.99,,,1.75,weatherlink.com 1.10,2013-05-10 06:46:00,
2013-05-10 02:01:00,67.3,66.0,29.95,North,350,1.0,-999.0,94,-99.99,,,1.80,weatherlink.com 1.10,2013-05-10 07:01:00,
2013-05-10 02:16:00,67.1,65.0,29.96,North,0,0.0,-999.0,94,-99.99,,,1.85,weatherlink.com 1.10,2013-05-10 07:16:00,
2013-05-10 02:31:00,66.9,65.0,29.93,SSE,168,1.0,-999.0,94,-99.99,,,1.93,weatherlink.com 1.10,2013-05-10 07:31:00,
2013-05-10 02:46:00,66.8,65.0,29.90,SSE,165,2.0,-999.0,94,-99.99,,,1.96,weatherlink.com 1.10,2013-05-10 07:46:00,
2013-05-10 03:01:00,66.4,65.0,29.84,SE,137,3.0,-999.0,94,-99.99,,,2.00,weatherlink.com 1.10,2013-05-10 08:01:00,
2013-05-10 03:16:00,66.1,65.0,29.82,ENE,69,6.0,-999.0,95,-99.99,,,2.03,weatherlink.com 1.10,2013-05-10 08:16:00,
2013-05-10 03:31:00,66.1,65.0,29.83,SSE,147,2.0,-999.0,95,-99.99,,,2.04,weatherlink.com 1.10,2013-05-10 08:31:00,
2013-05-10 03:46:00,66.1,65.0,29.86,SSE,167,5.0,-999.0,95,-99.99,,,2.06,weatherlink.com 1.10,2013-05-10 08:46:00,
2013-05-10 04:01:00,65.8,64.0,29.83,South,181,5.0,-999.0,95,-99.99,,,2.06,weatherlink.com 1.10,2013-05-10 09:01:00,
2013-05-10 04:16:00,65.5,64.0,29.84,South,178,0.0,-999.0,95,-99.99,,,2.06,weatherlink.com 1.10,2013-05-10 09:16:00,
2013-05-10 04:31:00,65.2,64.0,29.87,SE,144,0.0,-999.0,95,-99.99,,,2.07,weatherlink.com 1.10,2013-05-10 09:31:00,
2013-05-10 04:46:00,65.0,64.0,29.85,SE,144,0.0,-999.0,95,-99.99,,,2.07,weatherlink.com 1.10,2013-05-10 09:46:00,
2013-05-10 05:01:00,65.0,64.0,29.84,SE,144,0.0,-999.0,95,-99.99,,,2.07,weatherlink.com 1.10,2013-05-10 10:01:00,
2013-05-10 05:16:00,64.8,63.0,29.86,SE,144,0.0,-999.0,95,-99.99,,,2.07,weatherlink.com 1.10,2013-05-10 10:16:00,
2013-05-10 05:31:00,64.8,63.0,29.87,SE,144,0.0,-999.0,95,-99.99,,,2.07,weatherlink.com 1.10,2013-05-10 10:31:00,
2013-05-10 05:46:00,64.7,63.0,29.87,SE,144,0.0,-999.0,95,-99.99,,,2.07,weatherlink.com 1.10,2013-05-10 10:46:00,
2013-05-10 06:01:00,64.7,63.0,29.89,SE,144,0.0,-999.0,95,-99.99,,,2.07,weatherlink.com 1.10,2013-05-10 11:01:00,
2013-05-10 06:16:00,64.5,63.0,29.91,SE,144,0.0,-999.0,95,-99.99,,,2.07,weatherlink.com 1.10,2013-05-10 11:16:00,
2013-05-10 06:31:00,64.5,63.0,29.88,SSE,164,3.0,-999.0,95,-99.99,,,2.07,weatherlink.com 1.10,2013-05-10 11:31:00,
2013-05-10 06:46:00,64.5,63.0,29.88,SSE,162,0.0,-999.0,95,-99.99,,,2.08,weatherlink.com 1.10,2013-05-10 11:46:00,
2013-05-10 07:01:00,64.5,63.0,29.86,SSE,162,0.0,-999.0,95,-99.99,,,2.08,weatherlink.com 1.10,2013-05-10 12:01:00,
2013-05-10 07:16:00,64.7,64.0,29.85,SSE,150,0.0,-999.0,96,-99.99,,,2.08,weatherlink.com 1.10,2013-05-10 12:16:00,
2013-05-10 07:31:00,64.8,64.0,29.84,SSE,150,1.0,-999.0,96,-99.99,,,2.08,weatherlink.com 1.10,2013-05-10 12:31:00,
2013-05-10 07:46:00,65.2,64.0,29.87,SSE,150,0.0,-999.0,96,-99.99,,,2.08,weatherlink.com 1.10,2013-05-10 12:46:00,
2013-05-10 08:01:00,65.8,65.0,29.88,SSW,200,1.0,-999.0,96,-99.99,,,2.08,weatherlink.com 1.10,2013-05-10 13:01:00,
2013-05-10 08:16:00,66.1,65.0,29.91,SW,224,2.0,-999.0,96,-99.99,,,2.08,weatherlink.com 1.10,2013-05-10 13:16:00,
2013-05-10 08:31:00,66.1,65.0,29.94,NW,319,1.0,-999.0,96,-99.99,,,2.08,weatherlink.com 1.10,2013-05-10 13:31:00,
2013-05-10 08:46:00,66.9,66.0,29.94,NW,319,0.0,-999.0,96,-99.99,,,2.08,weatherlink.com 1.10,2013-05-10 13:46:00,
2013-05-10 09:01:00,67.3,66.0,29.94,NW,319,0.0,-999.0,95,-99.99,,,2.08,weatherlink.com 1.10,2013-05-10 14:01:00,
2013-05-10 09:16:00,67.8,66.0,29.94,NW,319,1.0,-999.0,95,-99.99,,,2.08,weatherlink.com 1.10,2013-05-10 14:16:00,
2013-05-10 09:31:00,69.3,67.0,29.94,WNW,285,0.0,-999.0,93,-99.99,,,2.08,weatherlink.com 1.10,2013-05-10 14:31:00,
2013-05-10 09:46:00,70.6,68.0,29.94,WNW,287,0.0,-999.0,91,-99.99,,,2.08,weatherlink.com 1.10,2013-05-10 14:46:00,
2013-05-10 10:01:00,70.9,66.0,29.94,WNW,284,0.0,-999.0,83,-99.99,,,2.08,weatherlink.com 1.10,2013-05-10 15:01:00,
2013-05-10 10:16:00,71.6,65.0,29.94,WNW,287,0.0,-999.0,80,-99.99,,,2.08,weatherlink.com 1.10,2013-05-10 15:16:00,
2013-05-10 10:31:00,72.7,67.0,29.94,North,8,2.0,-999.0,81,-99.99,,,2.08,weatherlink.com 1.10,2013-05-10 15:31:00,
2013-05-10 10:46:00,72.5,66.0,29.95,North,10,2.0,-999.0,81,-99.99,,,2.08,weatherlink.com 1.10,2013-05-10 15:46:00,
2013-05-10 11:01:00,73.9,67.0,29.93,North,10,0.0,-999.0,79,-99.99,,,2.08,weatherlink.com 1.10,2013-05-10 16:01:00,
2013-05-10 11:16:00,73.3,65.0,29.94,NNE,25,2.0,-999.0,76,-99.99,,,2.08,weatherlink.com 1.10,2013-05-10 16:16:00,
2013-05-10 11:31:00,73.9,66.0,29.95,NNE,25,4.0,-999.0,76,-99.99,,,2.08,weatherlink.com 1.10,2013-05-10 16:31:00,
2013-05-10 11:46:00,74.4,66.0,29.94,NNE,23,0.0,-999.0,75,-99.99,,,2.08,weatherlink.com 1.10,2013-05-10 16:46:00,
2013-05-10 12:01:00,75.3,67.0,29.94,NNW,346,0.0,-999.0,75,-99.99,,,2.08,weatherlink.com 1.10,2013-05-10 17:01:00,
2013-05-10 12:16:00,75.8,67.0,29.95,NNW,346,0.0,-999.0,74,-99.99,,,2.08,weatherlink.com 1.10,2013-05-10 17:16:00,
2013-05-10 12:31:00,75.3,66.0,29.95,SSE,168,1.0,-999.0,72,-99.99,,,2.08,weatherlink.com 1.10,2013-05-10 17:31:00,
2013-05-10 12:46:00,74.9,67.0,29.95,ENE,73,1.0,-999.0,75,-99.99,,,2.08,weatherlink.com 1.10,2013-05-10 17:46:00,
2013-05-10 13:01:00,74.6,66.0,29.93,South,169,0.0,-999.0,75,-99.99,,,2.08,weatherlink.com 1.10,2013-05-10 18:01:00,
2013-05-10 13:16:00,74.6,67.0,29.94,South,185,1.0,-999.0,76,-99.99,,,2.08,weatherlink.com 1.10,2013-05-10 18:16:00,
2013-05-10 13:31:00,74.2,67.0,29.95,SSE,167,0.0,-999.0,77,-99.99,,,2.08,weatherlink.com 1.10,2013-05-10 18:31:00,
2013-05-10 13:46:00,73.9,66.0,29.95,South,184,0.0,-999.0,77,-99.99,,,2.08,weatherlink.com 1.10,2013-05-10 18:46:00,
2013-05-10 14:01:00,73.5,66.0,29.95,South,175,1.0,-999.0,78,-99.99,,,2.08,weatherlink.com 1.10,2013-05-10 19:01:00,
2013-05-10 14:16:00,73.3,66.0,29.95,SSE,165,4.0,-999.0,79,-99.99,,,2.08,weatherlink.com 1.10,2013-05-10 19:16:00,
2013-05-10 14:31:00,73.2,66.0,29.95,South,181,0.0,-999.0,79,-99.99,,,2.08,weatherlink.com 1.10,2013-05-10 19:31:00,
2013-05-10 14:46:00,73.0,67.0,29.95,South,178,0.0,-999.0,81,-99.99,,,2.08,weatherlink.com 1.10,2013-05-10 19:46:00,
2013-05-10 15:01:00,71.8,66.0,29.94,SE,143,2.0,-999.0,82,-99.99,,,2.08,weatherlink.com 1.10,2013-05-10 20:01:00,
2013-05-10 15:17:00,70.1,66.0,29.91,SSE,151,6.0,-999.0,86,-99.99,,,2.09,weatherlink.com 1.10,2013-05-10 20:17:00,
2013-05-10 15:32:00,68.8,66.0,29.83,SSE,165,11.0,-999.0,89,-99.99,,,2.10,weatherlink.com 1.10,2013-05-10 20:32:00,
2013-05-10 15:47:00,68.3,65.0,29.75,SE,136,6.0,-999.0,90,-99.99,,,2.10,weatherlink.com 1.10,2013-05-10 20:47:00,
2013-05-10 16:02:00,68.4,65.0,29.77,NW,316,1.0,-999.0,90,-99.99,,,2.10,weatherlink.com 1.10,2013-05-10 21:02:00,
2013-05-10 16:17:00,69.1,66.0,29.82,NNW,328,1.0,-999.0,90,-99.99,,,2.10,weatherlink.com 1.10,2013-05-10 21:17:00,
2013-05-10 16:32:00,70.3,67.0,29.82,North,356,0.0,-999.0,89,-99.99,,,2.10,weatherlink.com 1.10,2013-05-10 21:32:00,
2013-05-10 16:47:00,71.8,68.0,29.83,NW,312,0.0,-999.0,87,-99.99,,,2.10,weatherlink.com 1.10,2013-05-10 21:47:00,
2013-05-10 17:02:00,72.7,68.0,29.84,NNE,14,4.0,-999.0,84,-99.99,,,2.10,weatherlink.com 1.10,2013-05-10 22:02:00,
2013-05-10 17:32:00,73.3,67.0,29.84,WNW,296,0.0,-999.0,80,-99.99,,,2.10,weatherlink.com 1.10,2013-05-10 22:32:00,
2013-05-10 17:47:00,74.6,66.0,29.85,WNW,296,0.0,-999.0,75,-99.99,,,2.10,weatherlink.com 1.10,2013-05-10 22:47:00,
2013-05-10 18:02:00,74.9,66.0,29.85,WNW,296,2.0,-999.0,74,-99.99,,,2.10,weatherlink.com 1.10,2013-05-10 23:02:00,
2013-05-10 18:17:00,74.7,66.0,29.84,WNW,296,0.0,-999.0,74,-99.99,,,2.10,weatherlink.com 1.10,2013-05-10 23:17:00,
2013-05-10 18:32:00,74.4,66.0,29.84,WSW,246,0.0,-999.0,74,-99.99,,,2.10,weatherlink.com 1.10,2013-05-10 23:32:00,
2013-05-10 18:47:00,74.4,66.0,29.85,SSW,196,0.0,-999.0,75,-99.99,,,2.10,weatherlink.com 1.10,2013-05-10 23:47:00,
2013-05-10 19:02:00,73.7,66.0,29.85,South,172,2.0,-999.0,76,-99.99,,,2.10,weatherlink.com 1.10,2013-05-11 00:02:00,
2013-05-10 19:17:00,73.5,66.0,29.87,SSE,168,2.0,-999.0,77,-99.99,,,2.10,weatherlink.com 1.10,2013-05-11 00:17:00,
2013-05-10 19:32:00,73.2,66.0,29.87,SSE,168,0.0,-999.0,77,-99.99,,,2.10,weatherlink.com 1.10,2013-05-11 00:32:00,
2013-05-10 19:47:00,72.5,65.0,29.89,SSE,152,1.0,-999.0,78,-99.99,,,2.10,weatherlink.com 1.10,2013-05-11 00:47:00,
2013-05-10 20:02:00,71.8,65.0,29.89,SE,138,1.0,-999.0,79,-99.99,,,2.10,weatherlink.com 1.10,2013-05-11 01:02:00,
2013-05-10 20:17:00,71.5,65.0,29.90,South,181,0.0,-999.0,80,-99.99,,,2.10,weatherlink.com 1.10,2013-05-11 01:17:00,
2013-05-10 20:32:00,70.9,65.0,29.90,South,175,2.0,-999.0,82,-99.99,,,2.10,weatherlink.com 1.10,2013-05-11 01:32:00,
2013-05-10 20:47:00,70.3,65.0,29.91,South,181,0.0,-999.0,83,-99.99,,,2.10,weatherlink.com 1.10,2013-05-11 01:47:00,
2013-05-10 21:02:00,69.8,65.0,29.92,SSE,157,0.0,-999.0,84,-99.99,,,2.10,weatherlink.com 1.10,2013-05-11 02:02:00,
2013-05-10 21:17:00,69.1,65.0,29.92,SSE,155,1.0,-999.0,85,-99.99,,,2.10,weatherlink.com 1.10,2013-05-11 02:17:00,
2013-05-10 21:32:00,68.6,64.0,29.93,SSE,157,0.0,-999.0,86,-99.99,,,2.10,weatherlink.com 1.10,2013-05-11 02:32:00,
2013-05-10 21:47:00,68.1,64.0,29.94,SSE,157,0.0,-999.0,86,-99.99,,,2.10,weatherlink.com 1.10,2013-05-11 02:47:00,
2013-05-10 22:02:00,67.6,63.0,29.95,SSE,160,0.0,-999.0,86,-99.99,,,2.10,weatherlink.com 1.10,2013-05-11 03:02:00,
2013-05-10 22:17:00,67.3,63.0,29.96,SSE,160,0.0,-999.0,87,-99.99,,,2.10,weatherlink.com 1.10,2013-05-11 03:17:00,
2013-05-10 22:32:00,66.8,63.0,29.96,SSE,160,0.0,-999.0,87,-99.99,,,2.10,weatherlink.com 1.10,2013-05-11 03:32:00,
2013-05-10 22:47:00,66.3,62.0,29.96,SSE,160,0.0,-999.0,87,-99.99,,,2.10,weatherlink.com 1.10,2013-05-11 03:47:00,
2013-05-10 23:02:00,66.0,62.0,29.96,SSE,160,0.0,-999.0,87,-99.99,,,2.10,weatherlink.com 1.10,2013-05-11 04:02:00,
2013-05-10 23:17:00,65.6,62.0,29.96,SSE,160,0.0,-999.0,88,-99.99,,,2.10,weatherlink.com 1.10,2013-05-11 04:17:00,
2013-05-10 23:32:00,65.5,62.0,29.95,SSE,160,0.0,-999.0,89,-99.99,,,2.10,weatherlink.com 1.10,2013-05-11 04:32:00,
2013-05-10 23:47:00,65.3,62.0,29.95,SSE,160,0.0,-999.0,89,-99.99,,,2.10,weatherlink.com 1.10,2013-05-11 04:47:00,